Theta_e
319 319 321 321 321 323 323 321 319 320 321 323 329 329 327 323 323 335 349 351 350 356 360 357 358 360 360 361 351 348 355 354 350 351 350 350 349 349 349 348 348 347 347 347 346 345 345 346 346 346 346 346 347 346 345 345 345 346 347 348 347 346 346 344 342 343 343 342 342 341 341 341 341 341 340 339 340 341 340 337 335 336 338 338 338 337
320 320 322 322 321 322 322 321 319 318 319 319 320 319 321 322 323 332 343 351 350 353 356 355 358 359 357 356 349 349 359 356 351 352 351 351 350 350 349 348 348 348 348 347 347 346 344 345 346 346 346 346 347 346 345 346 346 347 348 348 348 347 346 345 343 343 343 342 342 341 340 340 341 341 340 340 339 340 341 339 335 335 337 338 338 337
321 322 323 321 320 320 320 320 318 319 319 318 318 318 320 322 326 334 345 351 350 350 356 357 358 361 360 357 351 351 357 354 351 352 351 351 349 349 349 349 348 348 348 347 346 346 345 345 346 346 346 346 347 346 346 346 345 346 348 348 348 347 347 346 345 344 343 342 342 341 340 341 341 342 341 340 339 340 341 340 336 335 337 338 337 338
321 324 324 320 319 321 321 320 319 319 319 319 320 318 318 323 322 325 339 351 349 346 353 359 359 365 366 361 354 350 352 352 350 351 350 350 350 349 349 348 348 348 349 348 347 346 345 345 346 346 346 347 347 346 346 347 345 344 347 348 347 347 347 346 346 346 344 343 343 342 340 341 342 342 341 340 339 340 341 340 337 335 337 338 337 338
322 324 321 318 321 323 322 322 321 320 320 321 320 318 320 322 322 327 340 350 349 344 351 358 356 365 370 362 357 351 349 351 349 350 351 349 349 349 348 347 348 348 349 348 348 346 346 345 346 347 347 348 347 345 345 346 345 344 346 347 347 347 347 346 346 346 345 343 343 343 341 341 343 343 342 341 339 340 340 339 336 334 336 338 338 338
323 321 319 321 323 322 321 322 323 321 321 322 320 322 321 318 329 345 350 349 346 344 352 351 342 355 370 363 360 358 354 354 349 348 349 348 348 347 346 347 347 348 349 349 348 347 347 346 346 347 347 347 346 345 345 346 345 346 347 347 347 347 347 347 347 346 345 344 343 343 342 341 343 342 342 341 338 338 339 338 336 334 335 337 338 338
324 320 320 323 322 321 322 321 322 321 319 320 323 324 320 322 341 354 352 348 348 345 348 350 341 345 361 362 360 360 360 360 354 351 349 347 348 347 345 346 346 347 348 349 349 347 346 346 347 347 347 347 346 345 345 346 346 347 347 347 347 347 347 346 346 346 345 344 343 343 342 341 342 342 341 340 338 338 338 337 337 335 333 335 337 337
324 322 322 323 322 322 322 322 323 321 319 321 322 323 323 333 352 353 346 349 353 347 346 356 349 340 349 356 353 354 358 361 360 358 353 346 346 347 344 345 345 346 348 348 348 347 346 347 346 347 347 347 346 346 345 345 347 348 347 347 347 347 346 346 346 346 346 344 343 343 343 341 341 341 340 340 339 339 338 337 338 337 334 334 336 337
322 323 323 323 323 321 323 327 324 318 321 323 322 328 332 340 349 346 345 351 352 343 340 350 347 338 349 358 352 352 357 359 362 365 359 347 345 347 345 346 345 346 347 347 348 347 346 347 347 347 347 346 346 345 345 346 348 348 348 347 346 347 346 346 347 346 346 345 344 344 343 341 340 340 340 340 339 339 339 338 338 339 337 334 334 337
321 322 321 321 322 323 326 329 322 319 323 321 324 335 336 339 345 345 348 351 346 339 337 344 343 338 349 359 353 351 356 363 367 366 357 346 344 346 345 345 346 346 346 346 346 346 346 346 347 346 346 346 346 345 346 347 348 348 348 346 346 347 347 346 347 346 346 345 345 344 343 341 340 340 341 340 339 340 340 339 338 338 338 335 334 337
320 319 321 323 322 324 326 323 318 319 321 319 328 338 334 336 346 353 360 352 340 341 340 339 342 338 343 354 355 353 356 361 364 365 361 349 344 345 345 345 345 345 346 346 346 345 346 346 346 346 345 345 346 347 347 348 347 347 347 347 346 346 347 347 347 346 346 345 344 344 344 342 340 340 340 340 339 340 340 339 337 337 338 336 336 338
321 320 323 326 322 321 322 320 317 317 319 323 335 341 333 336 342 345 353 345 335 342 341 338 342 337 338 347 350 352 355 356 357 363 368 357 346 344 346 346 345 345 345 346 346 346 345 345 345 345 345 344 346 347 347 348 347 346 346 347 347 346 346 347 347 346 345 344 344 345 344 343 341 340 340 339 338 339 340 338 336 336 337 337 337 339
326 325 324 322 322 322 321 322 321 321 325 326 334 340 332 329 332 333 337 337 337 339 336 337 341 335 341 348 345 351 358 356 353 352 354 350 343 344 347 345 344 346 346 346 346 346 344 344 344 345 345 345 346 346 346 347 346 346 346 347 347 346 346 347 347 346 345 345 344 344 344 344 342 340 340 340 338 338 339 337 335 335 335 336 337 338
327 328 324 320 321 322 321 324 321 322 327 324 327 332 328 326 326 328 333 333 332 335 336 341 340 336 343 346 343 350 351 347 345 343 344 344 343 345 346 345 346 347 347 346 346 345 345 345 345 346 346 345 346 347 347 347 347 347 347 346 346 345 345 347 347 346 345 344 344 344 344 343 343 340 340 340 338 337 336 335 334 334 333 334 336 338
322 324 327 324 321 320 323 327 325 327 328 324 328 330 328 331 326 324 330 330 328 336 341 339 335 336 341 339 340 345 342 342 343 344 345 344 343 346 346 346 346 346 347 347 347 347 346 346 346 346 347 347 347 348 348 347 348 347 347 347 347 346 346 346 346 346 345 345 344 344 343 343 342 340 340 340 339 338 336 334 334 334 331 332 335 338
318 322 328 324 319 319 322 322 324 330 325 320 326 326 321 330 333 327 328 334 335 339 341 337 336 344 345 342 344 342 343 346 345 343 345 344 343 345 345 346 345 346 346 346 347 347 347 346 346 346 347 348 348 348 348 348 348 348 347 347 347 347 346 346 346 346 345 345 344 344 343 343 341 339 339 339 339 338 337 337 337 334 332 333 336 338
319 323 329 325 321 322 322 321 322 324 323 322 322 323 320 325 338 332 325 333 338 334 335 338 345 354 347 340 347 349 348 349 348 347 346 344 345 344 344 344 344 344 344 344 345 345 345 346 345 346 346 347 348 348 348 349 348 347 347 347 347 347 347 346 347 347 346 345 345 343 343 342 341 339 338 338 338 338 338 340 340 337 335 335 335 336
322 323 329 325 322 323 319 321 323 320 323 327 322 323 324 323 332 333 327 335 336 332 339 343 345 351 344 338 346 350 348 348 352 353 347 344 345 344 343 343 341 343 343 343 344 344 344 345 344 345 345 345 346 347 348 348 348 347 347 347 347 347 347 347 347 347 346 346 344 343 343 342 341 339 338 339 339 338 339 340 340 337 336 335 334 333
322 322 329 327 324 325 324 324 326 322 322 325 323 324 325 324 327 327 326 334 333 332 343 346 343 344 344 347 350 347 349 352 351 356 355 349 346 344 344 342 340 342 342 342 345 345 345 346 344 344 343 343 343 345 347 348 347 347 347 347 346 346 347 347 347 346 346 346 344 343 342 342 341 340 338 340 340 339 340 341 339 337 335 333 333 333
325 321 323 327 324 323 329 329 326 325 324 323 325 326 327 331 330 324 322 329 334 336 339 338 340 345 348 357 360 354 358 356 353 362 363 351 345 345 343 342 341 341 341 342 344 345 346 346 346 345 344 344 343 343 346 346 346 347 346 346 346 345 346 346 346 346 346 346 344 343 343 342 341 340 339 341 340 340 340 340 339 338 336 335 336 336
327 321 320 329 328 321 328 332 328 331 329 324 325 326 325 326 325 324 323 325 333 342 341 334 338 350 355 357 361 361 363 360 357 366 363 348 347 349 346 344 344 343 343 342 342 344 346 346 347 347 346 347 346 344 345 345 346 346 345 346 345 345 346 346 346 347 346 346 345 343 343 341 341 340 340 340 340 340 340 339 338 337 336 336 337 337
323 324 324 328 327 323 330 333 329 330 331 331 331 327 326 325 324 326 324 323 331 341 343 337 335 348 356 352 355 359 359 355 351 354 355 350 349 350 348 347 347 346 346 344 344 345 346 346 348 349 349 348 349 348 347 346 345 346 346 346 346 345 345 346 346 346 346 345 344 342 342 341 340 340 340 340 340 340 340 338 337 336 336 338 339 339
330 336 333 330 333 334 332 328 324 324 327 331 329 327 329 330 332 335 327 325 331 333 338 338 334 345 354 349 352 352 346 343 342 346 350 350 351 351 349 349 348 348 348 347 347 347 347 348 348 350 351 350 351 350 348 347 346 346 346 346 346 345 343 344 345 346 346 344 342 341 342 340 339 339 339 339 340 339 340 340 339 338 339 340 341 341
335 339 332 333 347 347 337 334 331 328 328 329 327 326 327 329 335 339 335 337 336 332 337 335 331 345 357 350 347 343 340 341 341 347 351 348 351 351 348 350 349 349 349 348 349 349 348 349 349 350 352 350 351 351 349 348 347 346 347 346 345 345 343 343 345 345 345 343 342 341 341 339 338 337 338 338 338 338 340 341 340 340 341 342 342 342
328 333 330 328 335 334 331 336 337 334 333 333 331 327 327 332 335 330 334 343 338 331 338 336 333 349 357 350 348 344 345 349 345 347 351 349 351 351 348 351 350 350 351 349 349 349 348 349 349 350 349 348 348 348 347 347 346 346 347 346 346 346 345 345 344 344 344 343 342 341 340 339 337 338 339 339 338 338 340 341 341 341 342 342 342 342
328 338 339 329 325 324 323 327 337 343 336 330 332 329 327 333 335 329 332 338 332 328 336 340 341 349 352 351 355 352 351 355 350 347 351 350 349 351 350 351 351 350 351 351 350 350 349 350 350 349 347 345 345 344 343 342 343 345 347 348 348 346 346 347 345 343 343 342 342 341 340 339 337 339 340 338 338 338 339 341 341 341 341 342 342 342
339 340 349 344 328 325 331 336 345 347 333 325 328 329 330 333 336 337 333 333 336 333 336 348 348 343 346 353 357 355 354 360 357 349 349 351 350 351 351 350 350 350 350 351 352 351 352 352 350 348 348 348 347 345 344 343 344 346 348 348 349 348 347 347 347 345 342 342 342 341 340 338 337 338 339 338 337 338 339 339 339 340 340 341 342 342
341 330 340 348 331 327 342 347 345 340 331 329 330 327 332 335 334 335 331 330 338 331 330 352 355 340 345 357 357 356 359 362 357 347 347 351 350 350 350 350 349 348 349 350 349 350 352 352 350 348 349 349 348 346 346 346 346 348 348 348 348 348 347 347 347 348 345 343 342 340 339 339 337 337 338 337 337 337 336 336 337 338 340 341 342 342
344 329 328 333 329 331 337 338 339 340 334 336 338 333 335 338 333 333 335 336 339 331 332 352 356 345 350 358 355 353 354 353 350 344 346 350 350 350 350 350 349 348 347 346 346 349 351 350 346 346 349 349 349 348 347 347 347 347 347 349 349 348 348 347 347 348 348 347 345 342 340 339 338 337 337 337 337 335 335 335 336 339 340 340 341 341
334 332 331 331 328 329 332 333 335 336 331 331 336 336 337 340 338 335 338 338 335 334 342 352 353 352 353 351 350 349 344 343 343 343 346 348 348 350 349 349 349 348 347 347 345 347 350 349 345 344 348 348 348 348 347 346 347 347 346 347 348 348 348 347 347 347 347 348 347 346 344 340 338 338 337 336 336 335 335 335 337 339 341 340 340 340
323 326 339 345 331 323 332 337 332 334 335 330 332 338 336 335 333 333 337 337 331 334 345 348 348 352 348 339 338 340 340 342 342 343 345 345 346 348 348 350 349 347 347 347 347 347 349 349 347 345 347 348 347 348 347 347 348 348 347 346 346 346 348 347 347 347 347 347 347 347 347 346 342 340 339 338 338 338 337 338 338 339 340 341 340 340
330 327 337 345 329 321 330 333 330 334 334 327 327 336 337 332 332 334 339 340 336 340 348 342 340 350 348 337 335 338 340 341 341 342 344 344 345 347 346 347 348 347 347 346 347 348 348 348 347 347 348 348 348 348 348 349 350 349 349 347 346 347 348 348 348 348 347 347 346 346 347 348 347 343 339 339 338 339 340 340 340 340 339 339 339 338
339 333 332 333 326 325 330 329 331 331 325 325 332 338 339 339 337 333 335 341 342 344 349 343 338 346 347 342 346 349 343 340 341 342 343 343 344 344 344 345 346 346 346 346 346 348 348 348 348 347 348 349 348 348 347 348 349 349 350 350 349 349 349 349 349 349 348 348 347 346 346 346 347 346 343 341 340 341 342 343 342 340 337 338 339 340
341 337 334 332 326 325 331 331 329 324 322 333 344 341 337 337 336 334 337 344 345 344 347 343 339 349 351 347 352 352 346 343 342 339 340 341 342 343 342 342 344 345 345 345 345 346 347 348 348 348 348 347 348 349 348 347 347 347 348 349 350 351 350 350 350 349 349 348 347 347 347 346 346 347 346 346 345 344 345 345 345 342 339 340 344 345
343 337 335 337 330 326 332 331 324 324 334 347 345 338 335 335 337 341 342 344 344 343 343 341 341 348 348 342 340 340 339 340 339 338 340 340 340 340 341 341 343 344 346 344 343 344 347 348 348 347 348 348 348 348 348 348 348 347 347 347 348 349 350 350 351 351 350 350 348 348 347 346 346 345 346 346 347 346 345 344 345 345 343 344 345 346
343 341 336 334 330 328 329 326 325 333 343 342 334 331 333 333 335 335 332 335 342 342 342 345 347 341 334 332 335 336 337 338 339 339 339 339 340 340 340 341 342 343 344 342 341 343 346 347 348 348 348 348 348 348 348 348 348 348 348 348 347 347 348 348 349 350 351 351 350 349 348 347 346 345 345 346 346 347 347 346 345 345 345 345 346 346
338 344 335 324 325 333 332 327 330 334 331 330 332 332 331 331 334 334 330 335 344 340 335 340 346 342 334 333 336 337 337 338 341 341 339 339 340 340 340 342 343 343 343 342 342 345 347 347 348 348 348 348 347 347 347 347 347 347 347 347 347 347 347 347 347 347 348 350 350 350 350 349 348 347 346 346 346 346 346 346 346 345 345 345 345 346
329 336 334 324 328 338 336 329 328 326 326 334 341 337 330 326 330 333 329 337 348 337 327 333 343 345 341 337 337 337 338 342 347 346 340 339 340 340 341 342 343 343 343 342 343 344 345 345 346 346 346 346 345 345 344 344 344 345 345 346 346 346 346 346 346 345 345 347 348 349 350 350 349 349 348 348 347 347 346 346 346 346 345 345 346 346
328 335 336 327 328 334 331 328 330 330 332 343 345 336 327 322 326 328 325 337 350 335 325 332 337 336 336 337 337 341 343 348 354 347 338 339 341 341 341 341 342 342 343 343 343 343 343 343 343 344 344 344 344 344 343 343 343 343 344 344 345 346 346 346 346 346 346 346 346 347 348 349 350 350 350 350 349 348 348 348 347 347 347 346 347 347
334 335 333 326 328 333 330 328 331 330 333 346 349 336 326 323 326 327 325 337 347 332 325 331 330 329 334 336 338 344 346 349 351 342 336 340 342 340 340 341 340 341 342 342 343 343 343 343 342 343 343 343 343 343 342 342 342 342 343 343 343 344 345 346 347 346 346 346 345 346 347 348 348 349 349 350 349 349 350 350 349 349 349 349 349 348
335 333 330 326 328 332 330 326 328 330 336 346 343 330 323 324 327 327 328 335 336 329 328 331 327 329 336 337 338 344 343 340 339 336 335 339 340 340 340 340 340 341 341 342 343 343 343 342 343 343 343 342 342 341 341 341 342 342 342 342 342 343 344 345 346 345 345 345 345 345 346 346 347 348 348 349 349 350 350 350 350 350 350 350 350 349
334 332 330 326 325 330 331 326 325 330 335 336 332 325 323 326 328 329 331 331 328 329 331 330 328 331 334 336 337 339 337 335 335 334 335 337 339 340 341 340 340 341 341 342 342 342 343 343 343 343 342 341 341 341 341 341 341 341 342 342 342 342 343 344 345 344 345 345 345 344 344 344 345 345 346 346 347 348 348 348 349 349 349 350 350 349
335 331 332 333 331 329 327 323 323 330 331 327 327 326 326 331 333 331 329 328 329 331 331 329 330 331 333 336 337 337 337 337 335 334 334 337 339 341 341 340 339 338 339 341 341 342 342 342 342 342 342 341 341 340 340 339 340 341 342 343 343 343 343 344 344 345 345 345 344 344 343 343 343 343 342 343 343 343 344 344 345 346 346 348 348 348
334 333 336 341 338 330 326 328 332 335 331 327 328 329 329 330 330 328 329 330 331 331 331 330 331 330 332 336 337 337 337 336 335 334 335 337 340 340 340 340 338 339 340 340 341 342 342 342 342 342 341 341 340 339 339 339 340 342 342 342 343 342 343 343 344 345 345 344 344 343 342 343 342 342 342 342 341 341 340 339 339 339 340 341 343 344
331 333 334 337 339 335 332 334 336 332 329 328 329 329 327 326 327 328 329 332 331 330 331 331 331 332 334 336 336 337 336 335 334 334 334 336 340 341 340 340 339 340 341 341 342 343 342 342 342 341 340 339 339 338 339 339 340 342 342 342 342 342 343 343 343 344 343 343 342 341 341 341 340 341 341 341 341 340 339 337 337 336 336 337 337 338
328 329 328 332 338 336 328 329 332 330 331 331 331 329 327 327 328 330 330 329 330 331 331 331 332 334 335 335 337 337 335 334 333 333 335 338 339 340 340 339 339 340 341 342 342 342 341 341 341 340 340 339 338 338 339 339 338 340 341 342 341 342 342 342 343 343 342 342 341 340 339 339 339 339 340 340 340 340 339 339 339 338 338 338 338 338
330 326 329 333 335 332 330 335 336 331 331 332 331 331 330 329 329 330 330 331 331 331 332 332 332 334 334 335 336 336 334 333 334 334 337 338 339 339 338 338 339 341 342 342 342 342 341 341 340 340 339 338 338 338 337 336 336 337 339 341 342 342 342 343 342 342 342 341 341 340 339 339 338 338 338 339 339 339 339 340 340 340 341 341 341 341
329 326 332 336 335 334 335 336 333 329 331 333 331 332 332 331 331 331 331 331 331 332 332 332 332 333 333 334 334 334 333 334 334 335 336 337 338 339 338 339 340 341 342 342 342 341 341 340 340 339 338 337 337 336 335 336 336 336 338 340 341 342 342 342 342 342 341 341 341 340 340 339 338 338 339 339 338 339 340 340 340 340 341 341 341 342
325 325 329 332 337 342 340 334 331 333 335 333 330 332 333 332 331 332 330 331 332 331 331 331 332 333 333 332 333 334 333 334 335 336 336 336 337 338 339 340 342 342 342 343 342 341 340 339 339 338 337 336 336 336 336 337 337 337 337 339 340 341 341 341 341 341 340 340 340 340 340 340 338 338 339 339 339 339 339 339 339 339 340 340 340 340
323 331 332 328 333 341 339 333 332 335 336 333 330 332 333 332 332 332 332 332 332 332 333 333 333 333 333 334 334 334 333 334 335 336 336 337 337 338 339 341 342 342 343 342 341 340 339 338 337 336 335 335 335 335 336 337 337 337 337 338 339 340 340 340 339 339 339 339 339 339 340 340 339 338 338 339 339 338 338 338 339 339 340 340 340 340
323 330 330 325 327 331 331 330 331 331 333 332 330 330 332 333 332 332 333 333 332 332 333 333 333 334 334 334 334 334 334 334 335 336 337 338 338 339 341 342 342 343 342 341 340 338 337 335 334 333 333 335 336 336 336 336 336 336 337 337 339 339 339 339 339 338 337 337 337 338 339 338 338 338 338 339 338 336 336 337 338 339 339 340 340 340
Wind_Speed
2 0 2 5 6 6 6 7 5 3 5 3 2 0 2 4 6 4 3 5 7 4 4 7 6 7 8 7 5 6 2 7 8 8 9 8 7 9 11 15 19 21 24 24 26 29 31 33 35 35 33 31 30 26 19 17 19 21 22 22 20 18 16 16 18 18 19 20 21 21 21 21 21 21 21 21 21 20 20 20 21 22 22 24 26 25
3 1 6 8 9 8 7 6 4 2 2 0 1 3 4 4 6 4 3 4 6 4 3 3 5 9 9 7 6 4 3 5 8 9 7 6 6 7 8 11 15 18 21 23 24 25 29 31 33 35 33 31 32 28 21 19 17 20 23 23 20 18 17 17 17 17 18 19 19 19 20 21 21 22 22 22 22 20 20 20 21 22 22 24 26 26
2 4 11 10 7 6 5 5 5 4 3 2 1 1 4 4 4 5 2 2 3 4 3 2 5 8 9 6 5 4 5 4 6 7 5 5 4 5 6 8 10 13 16 21 23 24 27 30 31 34 33 32 33 27 20 20 17 19 24 24 21 19 17 17 17 16 16 17 17 17 18 19 20 21 21 22 22 21 20 20 21 23 23 24 25 26
1 6 10 7 6 7 4 3 6 3 2 3 4 2 5 4 1 4 4 3 1 1 1 3 3 6 6 3 2 1 4 6 6 5 4 3 3 4 7 9 10 12 14 17 21 24 27 30 32 34 33 32 33 26 20 22 21 19 23 24 21 19 17 17 17 16 15 16 16 16 16 18 19 20 21 22 23 23 21 20 21 24 24 25 25 25
6 10 5 4 6 7 4 3 5 3 3 4 6 6 6 7 4 4 2 2 2 3 1 4 3 5 4 2 2 0 2 6 6 4 3 2 3 6 9 10 12 13 14 15 20 24 27 31 33 34 33 33 32 27 22 24 24 20 21 23 21 18 17 16 16 16 16 17 17 17 17 17 18 20 22 24 25 25 23 21 22 24 26 25 25 24
9 9 4 5 4 7 6 4 5 7 3 4 5 11 12 10 5 5 4 5 3 4 3 3 2 5 4 3 4 2 1 1 2 2 3 3 4 6 9 11 12 13 14 15 18 24 28 31 34 34 35 34 31 26 22 22 25 23 20 22 20 17 16 16 16 16 16 18 18 18 18 19 20 22 24 25 26 26 25 23 23 24 26 25 25 24
5 2 3 4 4 5 5 4 6 8 5 2 5 10 11 7 6 8 8 5 3 3 3 3 4 4 6 4 5 3 2 3 3 2 4 6 5 6 9 11 12 13 15 16 18 23 28 32 34 35 35 35 31 26 21 20 26 26 22 21 19 16 15 16 16 16 16 18 18 18 18 19 21 23 25 24 24 25 24 23 22 24 25 25 24 23
3 1 4 3 4 5 3 4 6 8 8 2 5 5 8 8 9 11 9 4 3 3 3 4 4 1 4 4 5 3 2 4 5 5 6 7 6 6 10 12 11 12 13 16 19 23 29 32 33 33 34 35 32 25 20 21 27 27 23 20 18 16 15 16 17 16 16 18 19 18 18 19 21 23 23 22 23 23 23 23 22 23 24 25 24 22
2 1 3 2 4 3 4 5 7 10 5 4 3 7 8 7 8 8 6 2 0 2 2 4 2 1 4 5 5 3 1 4 6 6 6 7 7 7 10 11 9 10 11 13 16 22 28 30 30 30 32 33 30 23 18 22 27 26 23 20 18 17 16 16 17 16 16 17 19 19 19 20 21 21 21 21 23 23 23 23 22 22 23 25 24 21
3 3 3 2 2 2 7 5 8 11 4 2 5 9 7 5 6 6 5 2 3 3 3 5 2 2 3 5 4 3 1 4 6 6 6 7 7 6 9 9 7 8 8 10 14 19 25 25 25 28 29 27 25 20 19 24 24 22 23 20 17 19 18 16 16 16 15 17 19 19 19 20 20 19 20 21 23 23 23 23 23 23 23 24 24 20
8 5 3 2 5 6 5 3 5 9 6 3 4 8 8 6 5 4 3 4 4 2 4 5 5 4 1 5 2 1 2 4 4 4 5 6 5 5 8 7 5 5 5 7 10 14 21 21 21 24 24 22 22 21 23 25 22 19 23 21 17 18 20 19 17 16 15 17 19 19 18 19 20 20 21 22 23 24 23 23 23 23 23 23 22 20
8 4 2 5 8 5 3 1 2 3 3 3 3 5 5 4 4 4 4 3 2 4 5 4 4 6 2 4 2 3 5 4 4 3 4 5 3 3 5 5 2 1 2 2 1 11 21 22 19 19 19 19 20 21 23 23 20 19 23 23 20 18 18 19 19 17 16 17 19 19 18 18 19 20 22 23 24 25 24 23 23 23 24 23 22 21
5 5 3 3 5 6 5 2 0 3 4 5 5 5 4 3 3 2 3 1 2 5 3 2 1 3 4 5 3 5 5 5 6 6 4 4 3 2 2 2 2 2 1 2 8 12 18 21 19 18 17 17 17 18 21 22 21 22 23 23 21 18 17 19 20 18 17 18 19 18 18 18 19 20 22 23 23 25 24 23 23 24 24 24 23 23
4 5 4 3 3 5 6 5 1 2 2 4 4 4 4 3 2 1 3 2 3 4 2 2 1 0 4 3 3 6 5 5 6 5 3 2 4 4 2 1 3 3 1 5 11 12 15 16 14 14 14 14 15 17 19 22 23 23 23 22 20 18 18 21 22 19 18 19 18 18 18 18 19 21 22 23 23 24 23 22 23 23 24 24 24 24
0 5 3 2 1 2 4 5 5 5 3 2 4 5 4 4 4 2 3 3 3 3 2 3 0 2 2 2 4 5 4 4 2 2 1 3 5 5 4 2 3 3 1 5 10 11 13 11 8 9 11 13 15 17 19 21 22 23 22 20 19 19 19 20 22 20 19 19 18 18 19 19 19 21 22 23 22 22 22 21 22 22 24 24 24 25
1 5 7 4 2 2 2 3 5 6 3 1 2 4 1 3 5 3 3 4 3 1 1 2 1 3 3 3 4 3 2 3 3 2 2 5 7 7 7 5 4 4 4 7 9 9 11 10 8 9 12 14 15 18 19 20 20 20 19 19 19 19 19 19 21 20 18 19 18 19 20 20 20 21 22 22 22 22 20 19 21 22 23 24 24 25
1 5 6 3 2 0 2 3 3 3 2 1 1 2 3 3 6 5 1 1 2 2 1 1 2 4 2 0 3 3 3 3 3 3 3 6 8 9 10 9 8 7 7 8 9 9 9 10 10 11 12 14 16 17 19 18 16 15 16 18 18 18 18 18 20 20 19 19 19 19 20 20 21 21 22 22 22 22 20 18 19 21 22 23 23 24
3 3 6 2 0 3 1 3 4 3 4 3 1 4 2 2 4 4 2 3 3 1 2 2 2 4 2 0 3 2 2 3 3 1 2 5 8 10 12 12 11 10 9 8 8 9 10 11 12 13 14 14 15 16 17 17 15 14 15 17 17 17 16 16 19 20 19 19 19 19 20 21 22 22 22 22 22 22 20 18 19 20 21 22 22 23
4 2 8 2 2 4 4 5 4 4 2 4 4 4 2 2 1 1 1 1 1 1 3 3 3 3 3 3 3 2 5 6 4 2 2 5 9 13 14 13 13 13 12 11 10 10 10 11 13 14 14 15 15 16 16 16 17 16 16 17 16 15 16 17 19 21 21 20 20 19 20 21 22 23 22 21 22 22 21 20 20 20 20 21 22 23
3 2 5 3 1 2 5 3 1 3 3 4 3 2 2 2 3 1 1 2 2 2 2 3 3 3 5 5 4 6 7 6 5 4 4 7 11 13 13 14 14 14 14 14 13 12 11 12 13 13 13 14 14 15 16 16 17 17 16 16 16 15 17 19 20 21 21 21 20 20 19 20 22 23 22 21 22 23 21 20 21 21 21 21 22 22
3 3 3 4 2 1 1 1 5 4 2 2 2 1 1 2 2 2 1 1 2 3 2 0 2 5 5 4 5 6 6 6 7 5 5 8 9 9 10 11 12 13 13 14 13 12 12 12 13 13 12 12 13 14 15 16 16 16 15 15 16 17 18 19 20 21 21 20 20 20 20 20 23 24 23 21 22 22 21 21 22 22 22 22 22 22
2 3 3 2 1 3 4 4 5 6 5 5 3 3 3 2 3 3 1 2 1 4 3 3 1 6 5 3 4 5 4 5 8 7 7 9 8 7 8 8 8 10 10 11 11 10 10 12 13 13 11 11 12 13 14 15 15 15 15 16 17 17 17 18 20 21 20 19 19 20 21 21 22 25 24 22 22 22 21 22 23 23 23 23 23 22
3 4 3 1 3 5 7 5 2 4 3 4 3 3 4 3 4 5 3 3 1 3 1 3 1 5 5 3 4 5 5 6 9 10 9 9 9 8 7 7 7 7 7 9 9 9 9 9 11 13 12 12 13 13 13 14 15 15 14 15 16 16 16 17 19 19 18 18 18 20 21 21 23 24 24 23 22 22 22 22 22 23 22 22 22 22
2 4 4 1 4 4 6 5 2 2 3 3 1 1 3 2 3 5 5 3 3 2 1 3 1 5 5 3 3 3 5 6 10 12 10 10 9 8 8 7 6 6 7 8 8 8 8 8 10 11 12 12 11 12 12 12 13 13 13 14 15 15 14 15 16 16 16 16 18 19 20 22 24 24 24 23 23 24 23 22 22 22 22 20 20 20
3 2 4 3 3 5 6 6 5 4 2 1 1 2 1 4 6 4 2 3 3 3 4 4 2 6 5 4 4 1 3 4 8 11 11 10 10 9 8 6 5 5 5 6 7 8 7 7 7 7 8 9 8 9 10 10 10 11 12 13 14 14 14 14 14 14 15 16 17 19 21 22 24 25 25 24 24 25 24 23 22 21 21 20 19 19
5 2 4 6 4 3 2 2 3 3 1 1 0 2 1 4 7 5 2 4 1 3 4 4 4 5 6 4 4 2 2 4 6 9 10 10 10 9 7 5 5 4 4 4 5 6 6 5 6 7 9 9 8 7 8 7 8 9 12 14 14 14 14 14 13 13 14 16 17 18 20 23 24 25 25 25 25 25 25 24 23 22 21 21 20 20
4 1 4 7 7 8 7 7 6 3 3 2 2 1 1 2 6 5 4 2 3 4 2 4 5 2 6 5 4 5 5 5 5 8 11 12 10 9 8 6 4 3 3 4 4 4 4 5 7 9 9 9 9 8 8 8 8 8 11 13 14 14 14 14 14 13 14 15 17 18 19 22 24 25 25 25 25 25 25 24 24 23 23 22 21 20
4 1 3 6 7 8 7 7 5 3 5 5 5 4 3 2 6 6 4 4 5 6 2 7 6 4 6 8 8 7 5 5 6 9 12 13 12 10 9 7 6 4 4 4 3 2 1 2 6 6 6 6 8 9 9 8 8 9 11 13 13 15 15 14 15 14 14 15 16 18 19 19 22 23 25 25 25 25 25 25 24 23 23 23 23 22
6 2 4 5 3 4 3 5 3 5 4 4 5 6 5 5 6 6 5 6 7 7 5 7 8 7 7 8 8 9 10 10 11 12 12 12 12 11 11 9 8 6 5 4 3 1 2 1 3 4 4 3 4 7 8 8 9 10 11 12 14 15 15 15 15 15 15 15 15 16 17 18 19 21 22 24 25 25 26 26 25 23 23 23 24 24
4 2 3 4 2 2 1 4 2 5 4 2 3 5 6 7 7 4 4 5 6 4 4 6 8 8 8 7 9 12 15 14 11 10 10 11 12 13 13 12 10 8 7 5 3 2 2 2 2 3 3 3 2 4 7 7 8 9 10 10 12 15 16 17 16 16 16 16 15 15 15 17 19 19 20 22 23 24 25 25 25 24 23 22 23 23
2 2 1 4 4 2 4 2 3 4 5 5 3 4 3 5 3 1 2 4 3 1 1 6 4 7 7 6 7 9 12 10 7 8 10 11 13 14 14 14 12 9 8 7 5 4 4 3 2 2 2 3 2 1 4 6 7 8 9 10 11 13 16 18 18 17 17 17 16 15 15 17 18 19 20 21 22 23 23 24 24 24 24 23 23 23
3 2 1 5 4 3 4 2 3 4 4 4 3 5 4 5 4 3 3 5 6 4 4 6 2 6 6 3 3 5 9 9 8 10 12 12 13 14 14 14 13 11 9 8 7 6 5 5 4 3 2 1 2 2 0 2 4 6 7 8 9 11 14 16 18 18 19 18 17 17 18 19 20 21 22 23 23 23 23 23 24 24 25 25 24 23
3 4 2 3 4 4 3 3 3 3 3 1 5 7 8 5 3 2 2 4 6 7 6 4 5 6 4 3 4 5 6 7 11 14 15 15 15 14 14 14 13 12 10 8 8 7 7 6 6 5 3 2 1 1 1 0 1 2 4 5 7 9 10 13 15 16 18 19 19 20 21 22 23 23 23 23 23 22 22 22 22 23 24 24 23 23
3 4 2 3 3 4 3 4 4 1 4 6 6 6 8 6 7 6 4 6 8 5 3 4 5 3 3 6 7 8 10 12 16 20 18 16 15 15 14 14 13 12 10 8 9 9 9 8 7 7 6 5 4 2 2 2 1 0 1 3 5 7 8 10 12 13 16 18 20 22 23 23 24 24 23 24 23 22 22 22 22 22 23 23 23 22
4 4 2 2 3 2 1 5 3 4 7 7 6 3 3 5 8 7 2 4 7 6 3 3 5 6 7 7 6 10 15 16 15 17 16 14 14 13 13 13 12 11 10 9 9 9 10 10 10 9 8 6 6 5 5 4 3 3 3 2 3 4 6 8 9 11 13 15 18 21 23 23 24 24 24 25 25 25 24 24 23 23 24 24 24 24
5 4 2 1 2 3 2 3 4 6 7 5 5 4 1 3 6 6 1 5 7 8 6 5 7 6 5 5 3 5 10 10 8 11 14 14 13 12 11 11 11 10 10 9 8 7 9 10 10 9 8 7 7 7 6 6 6 6 6 5 5 5 5 6 7 8 10 12 15 18 20 22 23 24 25 26 27 27 27 26 26 25 25 26 27 27
5 4 2 1 1 3 3 3 3 4 4 2 3 3 4 5 6 7 3 6 7 7 8 7 7 4 5 5 5 6 7 5 1 6 11 13 12 11 10 10 9 9 9 7 6 6 6 8 8 8 7 7 7 7 7 7 7 8 8 8 8 7 7 7 7 8 9 10 11 13 16 19 21 23 25 27 28 30 30 30 29 28 27 27 28 29
4 2 3 4 2 2 4 1 2 2 4 5 7 8 6 7 9 8 4 4 7 8 12 10 6 6 6 7 9 10 8 4 1 6 11 13 12 11 10 9 8 8 8 7 7 6 6 7 7 7 6 6 6 7 7 8 9 9 10 10 10 10 10 9 9 8 9 10 10 11 13 16 18 20 23 25 27 29 30 31 31 31 30 29 29 30
5 3 3 4 1 2 4 2 3 4 5 7 10 9 6 6 9 7 3 5 6 10 17 13 8 9 9 11 14 12 7 3 4 9 13 13 12 11 10 8 8 8 8 8 7 6 5 5 5 5 5 5 6 7 9 10 10 10 11 11 12 12 12 11 10 9 9 10 11 11 12 13 15 17 19 21 23 25 27 28 29 30 30 29 29 29
5 4 2 3 3 3 5 3 3 3 5 7 9 8 4 7 10 9 1 7 6 12 20 18 13 14 14 16 16 10 5 7 7 9 11 13 12 12 10 10 9 9 9 8 7 7 6 6 6 6 6 6 8 9 10 10 10 10 10 11 12 12 12 11 10 10 10 10 12 13 14 14 14 15 16 17 19 21 22 24 25 26 26 27 27 28
3 2 2 3 4 5 5 4 3 3 6 7 7 7 10 10 7 5 5 7 7 14 21 21 19 19 20 21 18 12 12 14 9 5 7 12 14 13 12 11 9 9 9 8 8 7 7 7 7 7 7 8 9 10 9 9 9 10 11 11 11 11 11 10 10 9 9 10 11 12 14 15 15 16 16 17 19 20 22 23 24 24 25 26 27 29
1 0 1 1 3 2 3 3 2 4 6 5 3 8 15 11 3 6 7 6 10 17 20 20 21 21 22 24 22 19 18 15 8 2 4 11 15 14 13 11 10 10 9 8 8 8 7 7 8 8 9 10 10 10 9 9 10 11 11 11 10 10 10 9 9 8 7 8 8 10 11 13 15 16 18 19 20 22 23 24 24 25 26 26 28 32
3 2 1 2 3 2 0 2 3 4 5 7 10 7 7 6 6 10 8 6 11 20 21 20 21 22 23 24 23 18 15 13 9 4 5 11 15 15 13 12 11 10 9 8 8 8 7 8 8 9 10 11 10 10 10 10 10 9 9 9 9 8 7 8 8 8 7 7 8 10 11 13 14 16 17 19 20 22 23 24 25 26 27 28 31 34
2 2 2 3 2 3 2 3 5 4 6 4 4 3 10 16 12 10 12 10 12 20 23 21 21 22 23 23 21 17 13 12 10 7 8 13 16 15 14 12 10 9 9 8 8 8 7 8 9 9 10 11 11 11 11 10 9 8 7 8 7 7 6 7 7 8 9 9 10 11 12 13 15 16 18 19 20 21 22 23 23 24 25 27 30 33
1 1 3 3 2 4 5 6 7 9 15 15 12 11 13 18 14 11 16 17 16 21 24 22 22 22 21 20 21 19 14 12 11 10 11 13 15 15 14 12 10 10 10 9 8 7 7 7 8 8 9 9 10 11 10 9 8 7 7 7 7 7 7 7 8 9 10 10 11 11 12 13 14 16 17 18 19 20 21 22 23 24 25 26 28 31
1 2 1 2 3 4 4 4 8 14 19 15 12 13 13 13 13 13 17 20 21 23 23 21 21 21 20 19 19 19 16 13 13 13 13 14 15 15 13 12 11 11 10 9 8 7 7 7 7 8 8 9 9 10 10 9 9 8 7 7 7 7 7 8 8 9 9 10 10 10 11 12 14 15 17 18 19 19 20 21 23 24 26 27 28 29
2 3 2 1 1 2 2 3 9 13 14 12 8 7 8 8 14 17 17 18 21 22 21 19 18 18 18 18 18 17 16 15 14 15 15 15 15 14 13 13 13 12 11 9 7 7 7 8 8 8 8 9 10 10 10 10 10 9 8 7 7 6 7 8 8 8 8 10 11 11 12 12 13 14 15 16 16 17 18 20 21 23 25 27 28 29
2 5 4 2 2 2 4 5 15 14 6 10 16 12 8 3 8 15 17 18 20 20 19 18 18 18 18 18 17 16 15 15 15 15 15 15 15 14 13 13 13 12 9 7 7 7 7 8 8 8 9 10 10 11 11 10 10 9 8 8 8 8 7 7 7 8 9 10 11 12 13 13 14 14 14 14 15 16 17 18 20 23 26 28 29 30
3 5 4 1 3 4 2 6 16 14 7 13 20 18 11 5 4 11 16 18 19 19 19 18 17 17 17 17 15 14 14 15 15 15 15 14 14 14 13 13 12 10 8 7 7 8 9 9 9 10 10 11 11 11 10 9 9 9 9 7 7 8 7 7 7 9 10 11 12 12 13 13 13 14 14 14 14 13 13 15 17 21 25 27 30 32
2 4 2 2 4 4 3 6 10 6 3 12 21 21 14 5 4 8 12 16 18 16 16 17 16 16 15 14 13 13 14 14 15 15 14 13 13 13 13 13 11 9 8 8 8 9 9 10 10 11 11 11 10 10 10 10 10 10 8 6 6 7 7 7 9 11 12 12 12 12 12 12 13 14 15 14 12 10 11 13 16 19 22 24 26 29
3 3 2 1 1 5 6 9 10 5 5 9 15 19 16 7 5 7 7 11 14 13 14 15 16 16 15 13 12 12 13 13 13 14 14 13 12 12 12 11 9 8 7 7 8 8 8 9 10 11 10 10 9 9 10 9 8 6 4 3 5 7 8 8 10 12 13 13 12 11 12 12 13 13 14 11 10 11 13 15 17 18 19 20 21 23
Wind_Direction
94 155 250 233 228 227 223 207 192 142 119 112 136 220 264 266 283 232 235 247 178 159 227 202 222 262 266 266 295 321 233 189 201 209 212 218 232 239 239 240 238 236 238 239 236 233 227 225 225 225 227 222 210 209 213 205 206 214 213 208 203 198 199 199 199 198 195 193 193 196 197 196 195 196 198 195 190 187 185 187 189 187 183 180 179 177
78 208 246 230 221 223 219 202 186 149 125 108 226 305 305 254 266 247 217 254 185 173 271 197 210 258 260 264 279 262 186 176 188 193 203 210 227 244 248 251 251 251 250 245 240 234 228 222 220 221 223 219 210 210 208 196 198 212 216 215 209 204 201 201 204 205 203 200 197 200 200 196 194 196 200 199 194 191 189 189 190 188 185 182 182 182
26 253 252 237 205 193 208 182 165 181 184 176 153 342 304 264 279 291 304 310 184 183 275 195 194 255 264 264 266 228 176 157 177 183 183 194 214 238 253 260 262 261 255 248 240 233 228 220 216 216 220 217 208 208 207 194 196 212 217 218 215 211 207 203 206 210 210 207 202 205 206 201 195 196 200 202 198 195 193 192 191 190 187 184 184 185
284 248 248 230 169 161 209 194 154 170 197 172 155 156 269 258 265 289 302 5 81 190 229 168 188 272 287 294 285 226 152 125 126 152 157 180 236 265 278 284 284 277 266 254 243 233 223 215 213 213 215 210 201 204 210 201 202 209 212 217 217 213 211 207 206 209 212 210 208 208 210 207 201 197 199 201 200 198 196 194 193 192 189 186 186 186
241 249 228 143 151 164 185 194 158 178 260 232 194 191 243 248 204 218 245 69 23 334 76 110 28 309 301 303 269 343 105 120 116 136 162 204 277 291 293 293 291 287 278 260 244 234 220 211 209 207 206 202 197 205 210 207 210 208 206 214 216 214 213 210 208 208 208 211 211 209 209 210 206 200 199 200 200 200 199 195 193 193 191 190 188 189
255 255 206 152 171 172 174 207 184 175 216 291 225 205 223 234 196 151 141 94 54 315 263 113 51 296 303 296 255 293 35 144 112 141 208 250 277 288 295 297 290 288 283 264 246 234 219 208 204 201 201 200 200 206 205 210 218 213 208 214 215 216 214 210 210 208 207 210 211 210 209 209 206 202 200 200 200 200 200 195 191 192 193 193 192 193
262 260 134 156 175 161 170 242 225 174 147 321 250 210 208 202 144 147 155 122 115 243 268 102 141 258 313 316 284 305 285 277 319 304 266 268 276 296 306 306 295 288 282 265 246 228 214 206 201 199 201 202 204 207 202 212 222 217 212 213 214 217 214 211 210 209 210 209 209 213 215 214 210 205 201 200 202 202 201 196 191 192 196 197 196 196
246 345 46 99 111 114 156 248 229 163 130 246 251 163 151 153 156 169 161 138 182 193 357 27 118 181 308 287 297 311 269 299 312 292 281 276 287 316 316 312 300 287 280 261 239 221 211 206 200 197 200 203 207 209 206 212 219 218 213 212 216 218 215 214 211 211 213 211 210 213 218 219 215 210 205 202 203 204 204 200 195 195 197 199 199 198
211 279 315 127 95 98 201 224 190 158 146 249 213 114 132 152 152 154 131 92 344 91 346 308 119 115 273 274 320 354 276 300 296 279 280 283 301 318 313 314 303 290 288 269 242 218 210 204 195 193 196 199 204 208 207 210 215 217 215 212 217 220 219 217 215 215 216 215 213 214 219 221 219 214 209 205 203 204 206 205 201 199 199 200 200 199
247 242 275 151 116 235 225 224 173 165 180 227 120 91 85 82 91 97 91 72 33 46 263 253 174 149 277 285 331 23 335 276 275 275 277 281 295 307 309 315 304 293 294 280 254 221 209 203 196 194 191 191 199 204 207 210 213 218 220 217 216 221 226 224 221 221 221 219 216 215 220 222 221 215 209 205 203 204 208 209 205 202 200 198 198 199
277 282 294 206 221 220 211 217 165 166 173 159 95 74 72 56 59 66 62 81 54 336 267 244 190 150 307 286 269 201 216 227 248 283 292 282 280 291 307 316 307 297 299 295 273 224 205 198 194 193 190 190 197 201 205 209 212 218 224 224 217 218 226 228 228 229 226 222 218 217 219 221 221 216 209 205 204 204 209 209 205 203 200 196 197 198
309 296 262 243 226 193 132 120 152 151 150 139 79 77 82 16 26 40 360 43 76 269 272 268 194 146 196 267 261 255 246 227 217 242 281 272 250 273 306 322 340 341 320 321 229 199 199 194 188 192 198 204 205 205 208 210 213 218 223 227 224 219 221 227 231 233 230 225 220 218 218 219 219 217 211 208 206 206 209 210 207 203 201 196 196 198
313 246 259 304 232 182 128 108 6 9 50 97 88 81 82 12 17 28 318 311 218 251 269 316 102 141 226 246 264 272 263 248 223 217 262 260 201 198 286 350 75 86 2 161 152 173 193 195 195 201 209 213 210 210 211 211 214 220 223 228 229 224 219 225 233 233 229 226 221 218 218 217 217 217 214 210 208 207 209 213 210 205 202 198 197 197
324 302 332 3 244 195 140 128 181 321 76 130 132 112 110 93 66 315 273 270 270 266 275 321 22 220 273 265 254 262 273 282 250 238 285 260 173 178 191 66 97 97 8 183 172 177 188 190 193 201 208 211 208 209 212 215 218 221 224 227 229 223 215 222 230 230 227 226 221 217 218 217 215 216 213 211 210 209 208 212 213 209 205 201 199 197
325 310 288 190 224 193 156 158 168 152 126 164 160 128 133 149 146 202 222 208 245 261 292 318 325 171 237 258 255 267 295 330 310 255 273 168 168 178 181 156 128 128 127 179 179 184 190 191 193 203 213 215 216 217 219 223 223 223 226 228 227 223 214 216 224 225 224 225 221 217 218 218 215 213 212 211 213 211 207 208 211 209 205 203 201 199
121 268 253 259 262 167 172 186 150 116 91 257 155 105 131 187 141 140 176 174 188 205 299 289 236 206 212 243 284 313 358 37 65 108 147 162 175 183 190 196 180 169 172 177 182 185 189 196 206 217 224 224 225 227 227 229 229 230 232 230 229 227 218 214 220 223 222 223 222 218 216 216 213 209 208 210 212 209 206 208 210 207 203 203 202 201
87 277 277 313 321 165 161 181 137 103 146 202 120 166 233 177 119 114 155 60 81 118 256 277 292 301 320 314 321 15 53 12 34 95 159 176 183 193 202 205 200 193 188 188 198 204 204 211 223 230 233 233 232 233 233 234 236 240 240 233 231 229 221 216 220 223 222 222 221 217 215 214 210 206 206 209 210 207 207 211 210 207 204 203 202 203
147 265 300 14 49 317 57 112 45 45 128 112 181 210 200 103 90 104 118 17 36 154 276 336 315 300 338 19 309 46 125 273 317 28 187 192 196 207 213 215 214 209 204 203 212 224 228 231 239 243 242 240 239 239 238 239 243 247 242 236 234 231 227 224 224 224 224 221 218 215 213 211 208 206 205 206 207 206 208 209 205 204 204 202 201 203
133 240 297 300 175 309 7 78 37 352 62 108 161 175 110 109 135 50 112 100 78 202 294 321 315 271 206 220 259 194 191 222 252 260 209 202 210 217 221 225 227 223 219 218 217 227 235 237 242 246 244 240 238 237 236 236 240 242 239 236 234 232 232 231 227 224 222 220 217 213 212 210 208 205 204 203 204 205 207 206 204 202 202 200 200 203
119 147 275 277 181 329 3 63 128 306 355 64 77 45 36 129 157 155 135 158 145 148 270 314 335 280 227 214 199 201 208 198 196 222 227 219 221 225 228 232 236 236 235 233 230 233 237 237 239 241 241 237 233 232 232 230 232 235 236 235 232 230 231 228 223 220 220 218 214 212 211 210 207 203 202 201 202 204 205 207 207 204 201 201 203 205
91 120 224 282 343 75 346 181 178 189 166 101 47 352 356 70 131 152 78 68 117 139 180 280 322 276 253 205 190 212 214 193 185 195 222 229 225 230 236 238 243 247 247 248 245 241 239 235 234 235 235 231 225 226 228 226 225 229 232 231 228 227 225 220 216 216 218 215 211 211 210 208 205 202 201 201 201 203 205 208 209 207 205 205 206 207
144 137 174 266 353 169 236 249 182 180 176 157 157 185 175 131 133 127 38 318 75 120 160 152 207 269 265 205 216 232 216 203 194 184 204 222 217 223 233 235 244 250 249 251 251 250 246 234 228 229 230 228 223 221 220 219 219 222 226 225 222 221 218 214 213 214 214 212 209 210 209 206 203 202 202 202 202 204 206 207 208 209 209 208 206 206
148 114 108 218 225 211 253 281 166 175 176 140 130 151 149 131 120 125 179 235 87 81 137 125 165 268 263 222 238 253 243 226 202 188 192 205 208 218 225 228 237 242 244 247 248 252 249 236 230 232 233 232 229 225 220 216 214 215 219 219 215 213 211 211 212 213 212 211 210 209 208 205 202 202 204 205 205 206 207 207 207 208 210 209 206 206
109 94 87 327 303 302 300 321 25 62 78 96 38 81 130 139 129 140 173 174 126 150 148 90 276 271 271 268 272 247 235 221 200 192 190 197 208 215 216 221 233 237 241 242 241 245 247 245 242 240 242 244 245 248 246 238 231 224 219 216 213 211 211 210 211 212 212 211 210 210 209 206 203 204 207 208 208 207 207 207 207 207 210 212 213 215
170 143 98 89 4 346 339 346 351 343 16 124 274 326 96 115 106 114 138 85 94 191 152 115 224 257 272 307 344 359 188 190 193 192 191 198 207 208 206 216 231 236 242 243 242 246 251 256 258 259 266 265 264 270 272 272 265 248 229 220 217 214 213 212 213 213 213 212 211 211 210 207 205 206 207 209 208 207 208 208 208 210 215 217 219 223
160 161 123 124 141 175 205 258 260 258 250 209 303 353 15 113 117 131 123 78 82 197 142 138 209 263 290 307 331 322 191 188 199 196 197 204 208 207 205 213 231 242 249 249 252 259 262 267 270 272 273 265 257 260 260 265 272 249 221 216 220 220 215 214 214 215 215 213 212 213 213 210 208 208 209 209 209 209 210 211 212 214 219 222 223 225
114 120 143 144 166 183 189 213 223 161 135 188 163 131 242 117 116 113 106 125 181 158 167 218 198 248 293 275 268 258 216 204 212 201 202 207 207 207 206 208 222 234 236 237 249 262 264 272 278 278 273 262 254 246 240 243 248 230 210 209 218 222 220 218 217 217 217 216 215 215 216 214 213 213 213 213 213 214 216 218 219 220 222 225 226 227
101 188 178 158 186 202 191 205 216 124 141 182 159 158 207 149 116 110 131 190 160 124 261 252 181 173 260 241 226 232 223 223 225 209 204 205 203 203 204 207 210 208 215 229 242 251 231 272 286 297 295 274 252 239 238 239 230 214 207 207 211 217 220 221 221 221 221 221 220 219 218 219 219 219 218 218 219 220 222 224 226 227 228 230 231 231
123 180 194 166 207 225 196 224 213 121 129 166 155 167 186 171 160 160 185 193 152 142 231 227 169 186 240 234 221 216 206 209 216 211 205 203 204 205 205 208 212 212 213 221 231 210 130 195 291 327 336 311 264 246 247 241 223 212 211 212 213 218 222 224 226 227 226 226 227 225 223 222 224 225 225 225 225 226 227 228 229 231 234 235 236 236
120 176 187 143 69 27 312 266 201 125 119 131 176 192 180 179 194 193 190 187 161 164 208 176 176 218 236 220 222 218 209 208 209 204 201 201 206 208 208 211 215 218 218 220 222 195 173 213 294 357 8 5 321 264 251 241 228 221 222 223 223 224 225 227 231 232 231 232 233 233 232 228 226 227 228 230 230 231 231 232 234 236 238 239 241 242
88 172 168 90 77 351 327 356 94 105 140 160 229 257 180 155 191 235 147 163 163 226 115 121 165 255 257 224 226 221 206 199 193 194 203 209 212 212 213 215 218 223 225 225 221 203 199 224 256 322 1 24 28 304 246 234 228 225 227 229 231 231 229 229 231 232 234 235 236 238 240 238 233 229 228 230 232 233 235 237 239 242 244 245 245 244
54 115 55 71 101 263 305 57 61 33 99 140 250 256 191 158 181 203 186 179 179 168 107 94 143 253 258 229 198 193 186 183 191 201 209 216 217 218 221 222 224 228 231 232 229 214 207 220 240 273 309 2 37 48 136 209 209 216 222 224 231 236 235 234 233 233 233 235 237 240 240 236 233 229 225 225 227 230 233 237 240 243 245 247 246 244
87 122 138 104 135 247 289 70 64 39 91 240 261 209 184 182 177 162 188 206 185 150 131 154 209 237 242 178 155 166 170 182 202 210 214 218 218 221 228 232 234 234 234 239 240 230 218 219 236 259 270 277 291 27 47 49 152 184 200 206 216 226 233 236 237 237 237 235 236 238 237 234 232 231 228 227 227 230 233 237 239 241 241 242 242 244
91 106 143 139 150 239 288 55 70 126 188 237 254 197 176 181 171 166 199 214 196 166 154 204 225 227 194 180 180 183 185 197 212 217 218 221 221 223 229 235 240 239 240 247 249 242 230 221 227 244 260 274 272 267 288 308 338 343 214 209 217 222 227 232 235 239 240 237 236 238 239 239 240 240 237 233 231 234 238 242 245 244 241 239 239 241
80 83 119 114 124 184 36 70 113 216 225 244 286 285 205 179 159 156 217 252 211 204 210 234 242 228 201 197 197 193 195 203 216 221 222 224 224 227 232 235 237 239 243 251 251 241 229 222 225 240 257 270 269 271 280 285 293 300 293 279 255 242 239 236 234 235 236 235 236 238 241 244 244 244 244 241 239 239 239 242 245 245 243 241 241 243
120 122 138 95 116 146 104 114 174 237 257 276 318 319 142 109 115 122 344 287 233 206 192 210 237 233 200 196 198 189 195 200 215 225 224 223 223 228 237 237 235 240 247 254 257 246 233 229 231 240 253 266 272 276 281 283 285 290 290 285 278 272 269 262 253 248 243 239 237 238 241 244 245 245 246 248 248 248 245 244 245 247 245 243 242 243
127 132 152 175 189 150 142 182 228 285 295 287 282 246 182 159 159 154 189 262 246 204 189 211 235 212 159 168 166 153 160 159 211 240 223 216 217 224 233 236 235 241 246 250 252 244 234 236 240 245 253 264 275 281 284 285 287 289 289 286 283 281 278 277 273 267 262 256 249 244 244 245 246 246 246 248 250 251 251 251 251 252 251 249 246 245
114 130 173 191 224 104 111 166 270 272 255 239 239 246 236 198 175 148 142 265 272 222 203 212 223 186 155 148 147 141 137 123 319 246 216 210 217 221 226 230 229 230 234 238 244 240 232 236 244 252 259 265 276 285 290 292 290 288 288 287 287 286 283 283 284 277 269 266 262 255 251 250 250 249 248 249 250 252 253 254 255 256 257 256 254 252
80 59 132 156 177 110 124 167 199 198 234 244 235 249 264 204 162 118 97 275 272 218 203 204 204 190 174 160 152 140 126 139 249 242 218 208 213 217 218 216 208 209 217 226 238 244 244 249 253 260 267 272 280 289 293 295 293 290 289 288 288 288 288 289 291 285 275 270 265 259 254 253 253 252 250 252 253 254 255 255 256 257 257 256 256 255
45 36 96 152 192 175 156 180 217 225 245 242 236 246 234 172 141 108 112 266 249 203 198 197 193 191 180 164 155 143 151 192 228 249 230 213 211 211 209 207 207 214 222 224 228 237 246 257 263 267 274 279 282 286 289 290 292 292 291 290 288 288 289 288 285 281 273 266 260 257 253 251 250 250 250 251 252 253 254 255 254 254 255 254 254 254
10 25 96 163 204 202 190 204 248 255 235 238 244 206 160 140 119 126 200 236 212 191 195 197 193 189 180 169 166 179 200 203 209 245 233 217 213 209 203 204 210 221 227 228 232 239 245 256 264 270 280 285 287 291 293 293 297 296 292 290 288 287 287 286 283 279 271 262 256 255 255 255 255 254 252 251 250 249 249 250 251 252 253 253 253 253
319 21 71 162 196 202 203 207 252 274 244 218 178 160 149 135 155 210 205 214 196 187 191 196 194 190 185 184 189 200 206 200 193 217 232 220 215 208 204 207 212 218 222 224 229 235 241 255 267 275 287 294 297 299 301 301 301 298 294 291 288 286 287 287 285 279 270 262 258 256 258 259 260 260 258 255 253 252 250 250 249 250 250 250 251 252
180 184 235 212 186 155 210 225 212 254 240 159 125 126 153 168 212 204 175 165 191 191 188 191 195 194 192 193 196 199 200 197 199 228 231 216 212 209 209 215 220 224 228 228 229 235 243 257 269 280 290 297 299 301 303 304 302 300 298 295 294 294 292 289 285 278 269 263 261 260 262 263 263 264 263 260 258 256 254 252 251 250 250 250 250 252
182 177 204 225 198 143 158 218 199 229 276 233 160 182 205 202 205 194 173 167 183 189 186 187 194 198 198 197 194 191 192 199 209 222 217 209 210 211 214 219 225 229 233 231 230 238 251 264 273 282 289 293 298 301 303 304 302 301 301 303 306 305 299 291 284 276 270 267 267 267 267 267 266 266 266 265 263 260 259 257 256 255 255 254 253 254
203 190 197 225 240 177 189 235 253 295 307 292 277 276 238 212 202 192 188 184 182 186 188 188 191 193 194 196 196 193 193 202 212 216 212 210 213 215 218 224 229 230 231 231 235 248 265 274 281 286 289 293 295 297 299 303 304 303 303 305 308 307 301 293 283 274 271 271 273 273 272 270 268 265 263 262 261 260 258 258 258 258 258 257 257 257
265 40 97 219 263 258 248 277 300 311 315 304 276 270 260 228 202 190 191 189 183 184 188 187 186 186 188 194 199 198 201 209 213 210 209 212 215 218 221 227 230 229 230 235 249 267 280 288 292 295 297 297 294 293 296 302 304 303 299 297 300 300 295 289 282 277 276 276 276 276 278 279 277 272 265 261 260 259 259 259 259 260 260 260 259 258
321 27 17 233 273 304 260 314 328 315 316 336 340 298 271 226 196 189 189 187 181 177 177 178 179 182 187 195 202 205 208 212 213 211 210 213 216 219 224 229 231 232 236 245 263 278 287 294 297 298 298 297 297 300 303 305 306 304 296 286 283 284 284 285 285 281 276 274 275 278 285 291 291 284 275 268 266 267 265 265 266 266 265 265 263 261
315 356 348 274 277 280 220 287 331 334 345 25 27 18 356 317 188 179 176 173 169 165 165 171 178 184 189 194 200 207 212 214 216 217 216 217 219 223 228 233 235 236 244 257 273 285 292 294 295 295 298 299 304 309 311 309 305 302 293 277 265 266 275 281 282 280 277 275 276 280 288 296 297 290 281 273 269 269 269 270 271 271 270 269 268 265
293 320 325 276 313 316 251 314 343 358 13 8 12 17 10 350 174 168 167 168 166 165 167 172 179 187 192 194 198 207 215 218 221 224 223 222 223 226 231 235 235 239 252 269 283 293 296 297 299 304 308 309 311 312 311 307 300 294 291 280 265 264 273 277 276 279 283 286 287 287 289 296 299 294 286 279 274 273 277 283 284 281 277 274 271 267
283 284 294 51 7 322 278 317 341 357 323 331 350 3 1 338 179 167 172 175 174 173 173 175 180 187 192 197 203 212 220 224 225 226 226 226 227 229 232 234 237 248 264 278 290 298 301 303 308 312 314 314 315 315 309 303 295 286 280 278 272 266 267 274 280 284 288 293 296 293 291 297 304 298 291 290 294 299 303 306 305 298 289 284 279 271
230 231 239 68 271 261 287 322 331 314 282 323 352 1 354 329 199 182 191 191 186 184 183 182 182 184 189 199 209 217 226 230 229 226 225 227 228 229 231 236 245 259 271 280 290 296 301 307 311 312 315 318 320 319 314 309 311 309 289 266 272 272 267 269 280 290 297 302 305 304 304 309 311 304 298 302 318 330 333 333 330 319 304 297 292 281